Total_Precipitation_Accumulation
0.00 0.00 0.00 0.00 0.00 0.01 0.01 0.01 0.02 0.02 0.01 0.00 0.00 0.00 0.00 0.00 0.00 0.00 0.00 0.01 0.02 0.02 0.02 0.02 0.02 0.02 0.02 0.03 0.03 0.03 0.04 0.04 0.04 0.05 0.08 0.15 0.21 0.25
0.01 0.01 0.02 0.01 0.02 0.02 0.02 0.03 0.03 0.04 0.03 0.01 0.00 0.00 0.00 0.00 0.00 0.01 0.01 0.02 0.02 0.03 0.03 0.04 0.04 0.03 0.03 0.03 0.04 0.04 0.04 0.04 0.04 0.04 0.05 0.06 0.11 0.18
0.02 0.03 0.03 0.04 0.04 0.04 0.04 0.04 0.03 0.03 0.04 0.02 0.01 0.01 0.02 0.03 0.03 0.04 0.04 0.06 0.06 0.07 0.08 0.08 0.07 0.06 0.06 0.07 0.08 0.08 0.09 0.09 0.08 0.08 0.08 0.08 0.07 0.09
0.03 0.04 0.04 0.04 0.05 0.05 0.04 0.04 0.04 0.05 0.06 0.05 0.03 0.02 0.03 0.04 0.06 0.08 0.06 0.05 0.07 0.07 0.10 0.10 0.10 0.10 0.09 0.09 0.08 0.08 0.08 0.08 0.09 0.10 0.11 0.12 0.12 0.11
0.02 0.02 0.02 0.02 0.03 0.04 0.04 0.04 0.04 0.04 0.07 0.09 0.07 0.06 0.05 0.06 0.10 0.11 0.10 0.12 0.10 0.11 0.10 0.10 0.09 0.07 0.06 0.06 0.06 0.06 0.05 0.05 0.04 0.06 0.07 0.09 0.10 0.11
0.01 0.01 0.01 0.02 0.04 0.05 0.05 0.05 0.06 0.08 0.10 0.13 0.13 0.10 0.08 0.07 0.13 0.14 0.12 0.12 0.12 0.09 0.09 0.08 0.07 0.05 0.04 0.04 0.04 0.04 0.03 0.03 0.03 0.04 0.04 0.04 0.04 0.05
0.01 0.01 0.01 0.02 0.04 0.05 0.05 0.07 0.11 0.15 0.16 0.18 0.16 0.12 0.08 0.10 0.13 0.14 0.13 0.09 0.06 0.06 0.09 0.10 0.11 0.10 0.09 0.09 0.07 0.05 0.03 0.02 0.02 0.02 0.02 0.03 0.03 0.03
0.01 0.02 0.02 0.02 0.02 0.02 0.05 0.10 0.16 0.19 0.19 0.19 0.18 0.16 0.12 0.12 0.14 0.15 0.15 0.15 0.12 0.09 0.14 0.11 0.12 0.12 0.12 0.15 0.14 0.08 0.05 0.03 0.02 0.01 0.01 0.01 0.02 0.03
0.03 0.03 0.02 0.01 0.02 0.04 0.05 0.07 0.07 0.08 0.14 0.21 0.22 0.19 0.17 0.17 0.20 0.21 0.22 0.24 0.19 0.14 0.21 0.17 0.12 0.13 0.13 0.14 0.13 0.09 0.07 0.06 0.04 0.02 0.01 0.01 0.01 0.01
0.03 0.03 0.03 0.03 0.04 0.05 0.04 0.03 0.03 0.05 0.07 0.12 0.18 0.18 0.18 0.19 0.23 0.26 0.27 0.27 0.20 0.17 0.27 0.27 0.14 0.13 0.12 0.17 0.18 0.13 0.10 0.09 0.07 0.05 0.03 0.02 0.02 0.02
0.02 0.02 0.03 0.05 0.06 0.07 0.05 0.05 0.05 0.05 0.05 0.08 0.14 0.20 0.22 0.24 0.26 0.28 0.35 0.38 0.27 0.15 0.24 0.32 0.22 0.17 0.15 0.18 0.20 0.17 0.13 0.11 0.08 0.06 0.05 0.05 0.05 0.04
0.01 0.02 0.03 0.06 0.05 0.05 0.04 0.07 0.11 0.09 0.10 0.15 0.22 0.27 0.30 0.37 0.39 0.37 0.41 0.41 0.33 0.28 0.27 0.31 0.28 0.24 0.21 0.17 0.18 0.19 0.17 0.15 0.12 0.10 0.08 0.07 0.08 0.07
0.02 0.03 0.06 0.07 0.05 0.04 0.06 0.10 0.14 0.14 0.19 0.26 0.27 0.27 0.28 0.32 0.33 0.32 0.33 0.35 0.38 0.41 0.35 0.32 0.29 0.27 0.26 0.18 0.14 0.15 0.17 0.20 0.21 0.20 0.18 0.15 0.11 0.09
0.04 0.06 0.08 0.08 0.06 0.09 0.10 0.13 0.15 0.20 0.27 0.30 0.28 0.27 0.25 0.26 0.27 0.25 0.26 0.28 0.33 0.37 0.33 0.31 0.31 0.27 0.22 0.15 0.14 0.15 0.20 0.27 0.35 0.40 0.35 0.30 0.19 0.13
0.05 0.08 0.10 0.11 0.13 0.17 0.19 0.19 0.23 0.28 0.30 0.29 0.29 0.28 0.24 0.21 0.19 0.18 0.20 0.26 0.31 0.31 0.28 0.23 0.26 0.24 0.20 0.19 0.19 0.21 0.21 0.26 0.34 0.43 0.44 0.39 0.28 0.17
0.04 0.08 0.15 0.21 0.24 0.27 0.29 0.31 0.31 0.30 0.27 0.27 0.26 0.23 0.17 0.14 0.13 0.15 0.19 0.23 0.27 0.27 0.23 0.20 0.20 0.21 0.23 0.23 0.22 0.24 0.22 0.28 0.35 0.42 0.47 0.49 0.41 0.26
0.02 0.06 0.12 0.17 0.21 0.22 0.25 0.28 0.30 0.27 0.24 0.22 0.21 0.19 0.15 0.13 0.13 0.14 0.17 0.18 0.21 0.25 0.23 0.20 0.20 0.19 0.18 0.18 0.22 0.23 0.22 0.28 0.40 0.45 0.47 0.56 0.58 0.42
0.03 0.07 0.11 0.15 0.20 0.20 0.22 0.25 0.26 0.25 0.23 0.21 0.20 0.18 0.16 0.16 0.18 0.17 0.17 0.18 0.22 0.22 0.21 0.19 0.16 0.12 0.11 0.14 0.25 0.29 0.28 0.39 0.47 0.44 0.39 0.48 0.64 0.59
0.05 0.08 0.12 0.17 0.20 0.19 0.20 0.24 0.27 0.26 0.23 0.20 0.19 0.17 0.16 0.16 0.15 0.15 0.16 0.16 0.15 0.14 0.14 0.12 0.11 0.11 0.10 0.16 0.30 0.49 0.48 0.45 0.43 0.39 0.38 0.44 0.63 0.67
0.08 0.11 0.13 0.16 0.20 0.21 0.20 0.20 0.21 0.20 0.18 0.18 0.18 0.16 0.15 0.14 0.13 0.12 0.11 0.10 0.10 0.10 0.10 0.10 0.11 0.11 0.11 0.17 0.42 0.61 0.63 0.44 0.35 0.41 0.49 0.50 0.61 0.63
0.11 0.14 0.17 0.17 0.19 0.21 0.21 0.19 0.17 0.15 0.13 0.13 0.14 0.15 0.15 0.13 0.10 0.08 0.07 0.07 0.08 0.08 0.09 0.12 0.15 0.13 0.08 0.06 0.23 0.46 0.57 0.66 0.57 0.55 0.58 0.52 0.41 0.31
0.13 0.16 0.15 0.15 0.17 0.16 0.14 0.14 0.14 0.12 0.10 0.10 0.11 0.10 0.10 0.10 0.08 0.07 0.06 0.05 0.05 0.05 0.06 0.08 0.09 0.08 0.07 0.07 0.18 0.35 0.41 0.43 0.46 0.52 0.55 0.40 0.24 0.23
0.16 0.16 0.15 0.14 0.14 0.13 0.11 0.09 0.08 0.08 0.09 0.10 0.09 0.07 0.06 0.05 0.04 0.03 0.02 0.01 0.01 0.01 0.02 0.02 0.03 0.03 0.03 0.03 0.07 0.13 0.15 0.13 0.10 0.13 0.29 0.37 0.32 0.33